| time (UTC) | temp C | wind direction | speed KPH | gust KPH | rain 1hr cm | rain 24hr cm | rain mn cm | humidity % | barometer mb |
| 20260902014703 | 13 | 148 | 0.0 | 3.2 | 0.00 | 0.00 | 0.00 | 86 | 1021.7 |
| 20260902013917 | 13 | 151 | 0.0 | 1.6 | 0.00 | 0.00 | 0.00 | 87 | 1021.6 |
| 20260902013640 | 13 | 106 | 0.0 | 0.0 | 0.00 | 0.00 | 0.00 | 87 | 1021.6 |
| 20260902012936 | 13 | 156 | 0.0 | 0.0 | 0.00 | 0.00 | 0.00 | 87 | 1021.6 |
| 20260902012643 | 13 | 156 | 0.0 | 0.0 | 0.00 | 0.00 | 0.00 | 87 | 1021.7 |
| 20260902011916 | 13 | 156 | 0.0 | 0.0 | 0.00 | 0.00 | 0.00 | 87 | 1021.6 |
| 20260902011159 | 13 | 156 | 0.0 | 0.0 | 0.00 | 0.00 | 0.00 | 87 | 1021.8 |
| 20260902010418 | 13 | 156 | 0.0 | 0.0 | 0.00 | 0.00 | 0.00 | 86 | 1021.9 |
| 20260902010212 | 13 | 156 | 0.0 | 0.0 | 0.00 | 0.00 | 0.00 | 86 | 1021.7 |
| 20260902005453 | 13 | 156 | 0.0 | 0.0 | 0.00 | 0.00 | 0.00 | 85 | 1021.8 |
| 20260902004700 | 13 | 77 | 0.0 | 0.0 | 0.00 | 0.00 | 0.00 | 85 | 1021.8 |
| 20260902003929 | 13 | 138 | 0.0 | 1.6 | 0.00 | 0.00 | 0.00 | 86 | 1021.9 |
| 20260902003201 | 13 | 138 | 0.0 | 1.6 | 0.00 | 0.00 | 0.00 | 86 | 1022.1 |
| 20260902002417 | 13 | 120 | 0.0 | 0.0 | 0.00 | 0.00 | 0.00 | 86 | 1022.1 |
| 20260902001649 | 13 | 120 | 0.0 | 0.0 | 0.00 | 0.00 | 0.00 | 86 | 1021.9 |
| 20260902000935 | 13 | 120 | 0.0 | 1.6 | 0.00 | 0.00 | 0.00 | 86 | 1021.8 |
| 20260902000645 | 13 | 120 | 0.0 | 1.6 | 0.00 | 0.00 | 0.00 | 86 | 1021.8 |
| 20260901235921 | 13 | 120 | 0.0 | 0.0 | 0.00 | 0.00 | 0.00 | 87 | 1021.7 |
| 20260901235428 | 13 | 120 | 0.0 | 0.0 | 0.00 | 0.00 | 0.00 | 86 | 1021.8 |
| 20260901235249 | 13 | 120 | 0.0 | 0.0 | 0.00 | 0.00 | 0.00 | 85 | 1021.8 |
| 20260901234515 | 13 | 120 | 0.0 | 0.0 | 0.00 | 0.00 | 0.00 | 84 | 1021.8 |
| 20260901234235 | 13 | 120 | 0.0 | 0.0 | 0.00 | 0.00 | 0.00 | 84 | 1021.8 |
| 20260901233327 | 13 | 120 | 0.0 | 0.0 | 0.00 | 0.00 | 0.00 | 83 | 1021.9 |
| 20260901232554 | 14 | 120 | 0.0 | 0.0 | 0.00 | 0.00 | 0.00 | 83 | 1021.9 |
| 20260901231906 | 15 | 120 | 0.0 | 0.0 | 0.00 | 0.00 | 0.00 | 80 | 1021.9 |
| 20260901231129 | 15 | 120 | 0.0 | 1.6 | 0.00 | 0.00 | 0.00 | 79 | 1022.0 |
| 20260901230417 | 15 | 120 | 0.0 | 1.6 | 0.00 | 0.00 | 0.00 | 78 | 1021.9 |
| 20260901225658 | 15 | 120 | 0.0 | 1.6 | 0.00 | 0.00 | 0.00 | 78 | 1021.9 |
| 20260901225014 | 15 | 90 | 1.6 | 3.2 | 0.00 | 0.00 | 0.00 | 79 | 1021.9 |
| 20260901224231 | 15 | 122 | 0.0 | 1.6 | 0.00 | 0.00 | 0.00 | 80 | 1021.9 |
| 20260901223451 | 14 | 138 | 0.0 | 1.6 | 0.00 | 0.00 | 0.00 | 81 | 1022.1 |
| 20260901222722 | 14 | 138 | 0.0 | 1.6 | 0.00 | 0.00 | 0.00 | 82 | 1022.0 |
| 20260901221956 | 14 | 138 | 0.0 | 0.0 | 0.00 | 0.00 | 0.00 | 82 | 1021.9 |
| 20260901221207 | 15 | 138 | 0.0 | 0.0 | 0.00 | 0.00 | 0.00 | 80 | 1021.9 |
| 20260901220445 | 15 | 138 | 0.0 | 0.0 | 0.00 | 0.00 | 0.00 | 80 | 1021.9 |
| 20260901215643 | 15 | 138 | 0.0 | 1.6 | 0.00 | 0.00 | 0.00 | 79 | 1022.0 |
| 20260901214905 | 15 | 138 | 0.0 | 0.0 | 0.00 | 0.00 | 0.00 | 78 | 1022.1 |
| 20260901214129 | 15 | 138 | 0.0 | 0.0 | 0.00 | 0.00 | 0.00 | 78 | 1022.1 |
| 20260901213408 | 15 | 138 | 0.0 | 0.0 | 0.00 | 0.00 | 0.00 | 79 | 1022.2 |
| 20260901213305 | 16 | 138 | 0.0 | 0.0 | 0.00 | 0.00 | 0.00 | 78 | 1022.0 |
| 20260901212519 | 16 | 138 | 0.0 | 0.0 | 0.00 | 0.00 | 0.00 | 77 | 1022.2 |
| 20260901211508 | 16 | 138 | 0.0 | 0.0 | 0.00 | 0.00 | 0.00 | 77 | 1022.2 |
| 20260901210549 | 16 | 138 | 0.0 | 0.0 | 0.00 | 0.00 | 0.00 | 77 | 1022.2 |
| 20260901210236 | 16 | 138 | 0.0 | 1.6 | 0.00 | 0.00 | 0.00 | 76 | 1022.3 |
| 20260901205531 | 16 | 138 | 0.0 | 1.6 | 0.00 | 0.00 | 0.00 | 76 | 1022.3 |
| 20260901205316 | 16 | 160 | 0.0 | 1.6 | 0.00 | 0.00 | 0.00 | 76 | 1022.4 |
| 20260901204524 | 16 | 164 | 0.0 | 3.2 | 0.00 | 0.00 | 0.00 | 77 | 1022.4 |
| 20260901203457 | 16 | 152 | 0.0 | 4.8 | 0.00 | 0.00 | 0.00 | 77 | 1022.4 |
| 20260901202745 | 16 | 165 | 1.6 | 4.8 | 0.00 | 0.00 | 0.00 | 76 | 1022.3 |
| 20260901202008 | 17 | 179 | 1.6 | 3.2 | 0.00 | 0.00 | 0.00 | 76 | 1022.3 |
| 20260901201531 | 17 | 191 | 1.6 | 4.8 | 0.00 | 0.00 | 0.00 | 73 | 1022.1 |
| 20260901200432 | 17 | 141 | 1.6 | 4.8 | 0.00 | 0.00 | 0.00 | 71 | 1021.9 |
| 20260901200155 | 17 | 155 | 1.6 | 4.8 | 0.00 | 0.00 | 0.00 | 72 | 1022.0 |
| 20260901195403 | 17 | 123 | 0.0 | 1.6 | 0.00 | 0.00 | 0.00 | 72 | 1021.9 |
| 20260901194621 | 17 | 140 | 0.0 | 1.6 | 0.00 | 0.00 | 0.00 | 72 | 1021.9 |
| 20260901193846 | 17 | 127 | 0.0 | 3.2 | 0.00 | 0.00 | 0.00 | 74 | 1021.9 |
| 20260901193115 | 17 | 143 | 0.0 | 1.6 | 0.00 | 0.00 | 0.00 | 75 | 1021.9 |
| 20260901192056 | 17 | 143 | 0.0 | 0.0 | 0.00 | 0.00 | 0.00 | 76 | 1021.8 |
| 20260901191315 | 17 | 143 | 0.0 | 1.6 | 0.00 | 0.00 | 0.00 | 74 | 1021.7 |
| 20260901190630 | 17 | 143 | 0.0 | 1.6 | 0.00 | 0.00 | 0.00 | 73 | 1021.7 |
| 20260901190149 | 17 | 172 | 0.0 | 1.6 | 0.00 | 0.00 | 0.00 | 72 | 1021.6 |
| 20260901185653 | 17 | 125 | 0.0 | 0.0 | 0.00 | 0.00 | 0.00 | 71 | 1021.5 |
| 20260901184925 | 18 | 125 | 0.0 | 1.6 | 0.00 | 0.00 | 0.00 | 71 | 1021.5 |
| 20260901184505 | 18 | 125 | 0.0 | 1.6 | 0.00 | 0.00 | 0.00 | 70 | 1021.6 |
| 20260901184216 | 18 | 128 | 0.0 | 1.6 | 0.00 | 0.00 | 0.00 | 69 | 1021.5 |
| 20260901183821 | 18 | 128 | 0.0 | 1.6 | 0.00 | 0.00 | 0.00 | 69 | 1021.5 |
| 20260901183054 | 18 | 143 | 0.0 | 0.0 | 0.00 | 0.00 | 0.00 | 69 | 1021.4 |
| 20260901182313 | 18 | 143 | 0.0 | 1.6 | 0.00 | 0.00 | 0.00 | 68 | 1021.3 |
| 20260901181351 | 19 | 165 | 0.0 | 1.6 | 0.00 | 0.00 | 0.00 | 66 | 1021.3 |
| 20260901180341 | 20 | 134 | 0.0 | 0.0 | 0.00 | 0.00 | 0.00 | 65 | 1021.4 |
| 20260901175414 | 20 | 134 | 0.0 | 1.6 | 0.00 | 0.00 | 0.00 | 65 | 1021.5 |
| 20260901174630 | 20 | 133 | 0.0 | 0.0 | 0.00 | 0.00 | 0.00 | 64 | 1021.4 |
| 20260901173917 | 20 | 122 | 0.0 | 1.6 | 0.00 | 0.00 | 0.00 | 64 | 1021.4 |
| 20260901173640 | 20 | 122 | 0.0 | 4.8 | 0.00 | 0.00 | 0.00 | 63 | 1021.4 |
| 20260901172940 | 20 | 135 | 0.0 | 3.2 | 0.00 | 0.00 | 0.00 | 62 | 1021.4 |
| 20260901172607 | 20 | 124 | 1.6 | 4.8 | 0.00 | 0.00 | 0.00 | 61 | 1021.4 |
| 20260901171446 | 20 | 138 | 1.6 | 4.8 | 0.00 | 0.00 | 0.00 | 61 | 1021.4 |
| 20260901171212 | 20 | 169 | 1.6 | 3.2 | 0.00 | 0.00 | 0.00 | 63 | 1021.5 |
| 20260901170456 | 20 | 165 | 0.0 | 0.0 | 0.00 | 0.00 | 0.00 | 66 | 1021.5 |
| 20260901165710 | 20 | 165 | 0.0 | 0.0 | 0.00 | 0.00 | 0.00 | 66 | 1021.4 |
| 20260901164950 | 20 | 165 | 0.0 | 1.6 | 0.00 | 0.00 | 0.00 | 66 | 1021.4 |
| 20260901164436 | 20 | 165 | 0.0 | 3.2 | 0.00 | 0.00 | 0.00 | 65 | 1021.4 |
| 20260901164051 | 21 | 172 | 1.6 | 8.0 | 0.00 | 0.00 | 0.00 | 60 | 1021.2 |
| 20260901163244 | 21 | 185 | 3.2 | 8.0 | 0.00 | 0.00 | 0.00 | 60 | 1021.3 |
| 20260901162456 | 21 | 162 | 3.2 | 8.0 | 0.00 | 0.00 | 0.00 | 59 | 1021.3 |
| 20260901161924 | 21 | 172 | 3.2 | 8.0 | 0.00 | 0.00 | 0.00 | 58 | 1021.2 |
| 20260901161645 | 21 | 188 | 1.6 | 4.8 | 0.00 | 0.00 | 0.00 | 61 | 1021.2 |
| 20260901160912 | 21 | 176 | 1.6 | 9.7 | 0.00 | 0.00 | 0.00 | 60 | 1021.2 |
| 20260901160717 | 21 | 196 | 4.8 | 9.7 | 0.00 | 0.00 | 0.00 | 58 | 1021.3 |
| 20260901160015 | 22 | 186 | 3.2 | 4.8 | 0.00 | 0.00 | 0.00 | 56 | 1021.3 |
| 20260901155550 | 21 | 164 | 0.0 | 3.2 | 0.00 | 0.30 | 0.00 | 59 | 1021.3 |
| 20260901154539 | 21 | 143 | 0.0 | 4.8 | 0.00 | 0.30 | 0.00 | 58 | 1021.2 |
| 20260901154150 | 22 | 149 | 1.6 | 8.0 | 0.00 | 0.30 | 0.00 | 59 | 1021.4 |
| 20260901153416 | 22 | 150 | 3.2 | 8.0 | 0.00 | 0.30 | 0.00 | 60 | 1021.4 |
| 20260901152633 | 22 | 216 | 1.6 | 6.4 | 0.00 | 0.30 | 0.00 | 56 | 1021.3 |
| 20260901151913 | 22 | 184 | 3.2 | 6.4 | 0.00 | 0.30 | 0.00 | 56 | 1021.2 |
| 20260901151716 | 22 | 204 | 1.6 | 9.7 | 0.00 | 0.30 | 0.00 | 57 | 1021.3 |
| 20260901150949 | 22 | 212 | 4.8 | 9.7 | 0.00 | 0.30 | 0.00 | 56 | 1021.2 |
| 20260901150802 | 22 | 247 | 3.2 | 8.0 | 0.00 | 0.30 | 0.00 | 55 | 1021.2 |
| 20260901150029 | 22 | 181 | 3.2 | 11.3 | 0.00 | 0.30 | 0.00 | 56 | 1021.2 |
| 20260901145000 | 22 | 190 | 3.2 | 11.3 | 0.00 | 0.30 | 0.00 | 56 | 1021.3 |
| 20260901143929 | 22 | 324 | 4.8 | 11.3 | 0.00 | 0.30 | 0.00 | 53 | 1021.3 |
| 20260901143156 | 22 | 195 | 4.8 | 11.3 | 0.00 | 0.30 | 0.00 | 56 | 1021.3 |
| 20260901142545 | 22 | 126 | 4.8 | 9.7 | 0.00 | 0.30 | 0.00 | 57 | 1021.4 |
| 20260901141529 | 21 | 207 | 4.8 | 12.9 | 0.00 | 0.30 | 0.00 | 55 | 1021.4 |
| 20260901140418 | 21 | 125 | 8.0 | 14.5 | 0.00 | 0.30 | 0.00 | 57 | 1021.4 |
| 20260901135701 | 22 | 167 | 8.0 | 14.5 | 0.00 | 0.30 | 0.00 | 59 | 1021.4 |
| 20260901135232 | 22 | 115 | 4.8 | 14.5 | 0.00 | 0.30 | 0.00 | 59 | 1021.4 |
| 20260901134431 | 22 | 159 | 3.2 | 11.3 | 0.00 | 0.30 | 0.00 | 62 | 1021.4 |
| 20260901133915 | 22 | 166 | 4.8 | 11.3 | 0.00 | 0.30 | 0.00 | 57 | 1021.5 |
| 20260901133515 | 22 | 73 | 4.8 | 12.9 | 0.00 | 0.30 | 0.00 | 58 | 1021.4 |
| 20260901132501 | 22 | 216 | 3.2 | 12.9 | 0.00 | 0.30 | 0.00 | 59 | 1021.4 |
| 20260901132209 | 21 | 203 | 6.4 | 12.9 | 0.00 | 0.30 | 0.00 | 60 | 1021.4 |
| 20260901131443 | 21 | 202 | 6.4 | 11.3 | 0.00 | 0.30 | 0.00 | 61 | 1021.5 |
| 20260901130857 | 20 | 169 | 3.2 | 9.7 | 0.00 | 0.30 | 0.00 | 63 | 1021.5 |
| 20260901130124 | 20 | 184 | 4.8 | 9.7 | 0.00 | 0.30 | 0.00 | 64 | 1021.6 |
| 20260901125412 | 20 | 189 | 3.2 | 8.0 | 0.00 | 0.41 | 0.00 | 67 | 1021.6 |
| 20260901125134 | 20 | 158 | 1.6 | 8.0 | 0.00 | 0.41 | 0.00 | 70 | 1021.6 |
| 20260901124414 | 20 | 150 | 1.6 | 6.4 | 0.00 | 0.41 | 0.00 | 71 | 1021.7 |
| 20260901124117 | 20 | 181 | 1.6 | 8.0 | 0.00 | 0.41 | 0.00 | 70 | 1021.6 |
| 20260901123401 | 20 | 175 | 3.2 | 8.0 | 0.00 | 0.41 | 0.00 | 69 | 1021.6 |
| 20260901122856 | 20 | 174 | 1.6 | 6.4 | 0.00 | 0.41 | 0.00 | 69 | 1021.7 |
| 20260901122126 | 20 | 167 | 1.6 | 8.0 | 0.00 | 0.41 | 0.00 | 68 | 1021.7 |
| 20260901121516 | 20 | 186 | 6.4 | 12.9 | 0.00 | 0.41 | 0.00 | 63 | 1021.7 |
| 20260901120752 | 21 | 138 | 6.4 | 9.7 | 0.00 | 0.41 | 0.00 | 66 | 1021.6 |
| 20260901115958 | 20 | 193 | 3.2 | 8.0 | 0.00 | 0.51 | 0.00 | 69 | 1021.6 |
| 20260901114930 | 20 | 146 | 3.2 | 9.7 | 0.00 | 0.51 | 0.00 | 72 | 1021.6 |
| 20260901113929 | 20 | 168 | 1.6 | 6.4 | 0.00 | 0.51 | 0.00 | 73 | 1021.6 |
| 20260901113815 | 19 | 162 | 1.6 | 4.8 | 0.00 | 0.51 | 0.00 | 76 | 1021.7 |
| 20260901112929 | 19 | 176 | 0.0 | 3.2 | 0.00 | 0.51 | 0.00 | 75 | 1021.7 |
| 20260901112351 | 19 | 174 | 1.6 | 3.2 | 0.00 | 0.51 | 0.00 | 75 | 1021.8 |
| 20260901111437 | 19 | 159 | 0.0 | 6.4 | 0.00 | 0.51 | 0.00 | 77 | 1021.8 |
| 20260901111118 | 19 | 148 | 0.0 | 8.0 | 0.00 | 0.51 | 0.00 | 76 | 1021.8 |
| 20260901110403 | 19 | 169 | 3.2 | 12.9 | 0.00 | 0.51 | 0.00 | 74 | 1021.9 |
| 20260901110028 | 19 | 182 | 4.8 | 12.9 | 0.00 | 1.50 | 0.00 | 74 | 1021.8 |
| 20260901105612 | 20 | 145 | 4.8 | 11.3 | 0.00 | 1.50 | 0.00 | 73 | 1021.8 |
| 20260901105311 | 20 | 150 | 4.8 | 8.0 | 0.00 | 1.50 | 0.00 | 77 | 1021.7 |
| 20260901104537 | 19 | 194 | 1.6 | 6.4 | 0.00 | 1.50 | 0.00 | 78 | 1021.8 |
| 20260901104143 | 18 | 208 | 0.0 | 3.2 | 0.00 | 1.50 | 0.00 | 79 | 1021.8 |
| 20260901103423 | 18 | 169 | 0.0 | 4.8 | 0.00 | 1.50 | 0.00 | 79 | 1021.8 |
| 20260901102800 | 18 | 143 | 4.8 | 8.0 | 0.00 | 1.50 | 0.00 | 78 | 1021.8 |
| 20260901101943 | 18 | 177 | 3.2 | 11.3 | 0.00 | 1.50 | 0.00 | 79 | 1021.8 |
| 20260901101310 | 18 | 162 | 1.6 | 9.7 | 0.00 | 1.50 | 0.00 | 81 | 1021.8 |
| 20260901100515 | 18 | 124 | 3.2 | 9.7 | 0.00 | 1.80 | 0.00 | 82 | 1021.8 |
| 20260901095531 | 18 | 141 | 4.8 | 9.7 | 0.00 | 1.80 | 0.00 | 83 | 1021.9 |
| 20260901094403 | 18 | 141 | 1.6 | 12.9 | 0.00 | 1.80 | 0.00 | 85 | 1021.9 |
| 20260901093424 | 17 | 114 | 4.8 | 12.9 | 0.00 | 1.80 | 0.00 | 85 | 1021.9 |
| 20260901093320 | 17 | 146 | 3.2 | 8.0 | 0.00 | 1.80 | 0.00 | 85 | 1021.8 |
| 20260901092549 | 17 | 153 | 4.8 | 8.0 | 0.00 | 1.80 | 0.00 | 85 | 1021.9 |
| 20260901091914 | 17 | 203 | 4.8 | 8.0 | 0.00 | 1.80 | 0.00 | 86 | 1021.8 |
| 20260901091156 | 17 | 136 | 1.6 | 9.7 | 0.00 | 1.80 | 0.00 | 86 | 1021.8 |
| 20260901090525 | 17 | 49 | 3.2 | 9.7 | 0.00 | 1.80 | 0.00 | 87 | 1021.7 |
| 20260901085349 | 17 | 184 | 1.6 | 8.0 | 0.00 | 1.80 | 0.00 | 88 | 1021.6 |
| 20260901084633 | 17 | 139 | 3.2 | 9.7 | 0.00 | 1.80 | 0.00 | 87 | 1021.6 |
| 20260901083907 | 17 | 154 | 3.2 | 9.7 | 0.00 | 1.80 | 0.00 | 87 | 1021.5 |
| 20260901082911 | 17 | 176 | 1.6 | 9.7 | 0.00 | 1.80 | 0.00 | 88 | 1021.5 |
| 20260901082746 | 17 | 164 | 3.2 | 8.0 | 0.00 | 1.80 | 0.00 | 88 | 1021.5 |
| 20260901082015 | 16 | 120 | 4.8 | 11.3 | 0.00 | 1.80 | 0.00 | 88 | 1021.4 |
| 20260901081224 | 16 | 148 | 4.8 | 9.7 | 0.00 | 1.80 | 0.00 | 89 | 1021.2 |
| 20260901080438 | 16 | 155 | 4.8 | 9.7 | 0.00 | 1.80 | 0.00 | 88 | 1021.2 |
| 20260901075941 | 16 | 127 | 3.2 | 8.0 | 0.00 | 1.80 | 0.00 | 89 | 1021.1 |
| 20260901075829 | 16 | 155 | 1.6 | 12.9 | 0.00 | 2.01 | 0.00 | 89 | 1021.1 |
| 20260901075009 | 16 | 148 | 4.8 | 12.9 | 0.00 | 2.01 | 0.00 | 89 | 1021.1 |
| 20260901074603 | 16 | 117 | 1.6 | 9.7 | 0.00 | 2.01 | 0.00 | 90 | 1021.1 |
| 20260901073955 | 16 | 167 | 3.2 | 9.7 | 0.00 | 2.01 | 0.00 | 90 | 1021.0 |
| 20260901073159 | 16 | 117 | 3.2 | 9.7 | 0.00 | 2.01 | 0.00 | 90 | 1021.0 |
| 20260901072539 | 16 | 150 | 3.2 | 11.3 | 0.00 | 2.01 | 0.00 | 91 | 1020.9 |
| 20260901072308 | 16 | 162 | 3.2 | 9.7 | 0.00 | 2.01 | 0.00 | 91 | 1020.9 |
| 20260901071533 | 16 | 146 | 3.2 | 9.7 | 0.00 | 2.01 | 0.00 | 91 | 1020.9 |
| 20260901070505 | 16 | 115 | 1.6 | 9.7 | 0.00 | 2.01 | 0.00 | 91 | 1020.8 |
| 20260901070215 | 16 | 53 | 3.2 | 9.7 | 0.00 | 2.01 | 0.00 | 91 | 1020.8 |
| 20260901065035 | 15 | 111 | 1.6 | 6.4 | 0.00 | 2.01 | 0.00 | 92 | 1020.8 |
| 20260901064439 | 15 | 135 | 1.6 | 4.8 | 0.00 | 2.01 | 0.00 | 91 | 1020.7 |
| 20260901063106 | 15 | 127 | 3.2 | 8.0 | 0.00 | 2.01 | 0.00 | 91 | 1020.8 |
| 20260901062812 | 15 | 84 | 3.2 | 8.0 | 0.00 | 2.01 | 0.00 | 92 | 1020.7 |
| 20260901062022 | 15 | 98 | 1.6 | 8.0 | 0.00 | 2.01 | 0.00 | 92 | 1020.6 |
| 20260901061441 | 15 | 186 | 1.6 | 4.8 | 0.00 | 2.01 | 0.00 | 92 | 1020.4 |
| 20260901060645 | 15 | 141 | 0.0 | 6.4 | 0.00 | 2.01 | 0.00 | 92 | 1020.4 |
| 20260901055910 | 15 | 186 | 1.6 | 6.4 | 0.00 | 2.01 | 0.00 | 92 | 1020.4 |
| 20260901055531 | 15 | 136 | 1.6 | 4.8 | 0.00 | 2.01 | 0.00 | 92 | 1020.4 |
| 20260901055251 | 15 | 161 | 0.0 | 4.8 | 0.00 | 2.01 | 0.00 | 92 | 1020.4 |
| 20260901054524 | 15 | 131 | 1.6 | 4.8 | 0.00 | 2.01 | 0.00 | 92 | 1020.3 |
| 20260901054031 | 15 | 154 | 1.6 | 8.0 | 0.00 | 2.01 | 0.00 | 92 | 1020.2 |
| 20260901053040 | 15 | 118 | 1.6 | 6.4 | 0.00 | 2.01 | 0.00 | 92 | 1020.2 |
| 20260901052045 | 15 | 117 | 0.0 | 6.4 | 0.00 | 2.01 | 0.00 | 92 | 1020.1 |
| 20260901051621 | 15 | 146 | 1.6 | 8.0 | 0.00 | 2.01 | 0.00 | 92 | 1020.0 |
| 20260901045425 | 15 | 122 | 1.6 | 9.7 | 0.00 | 2.01 | 0.00 | 92 | 1020.0 |
| 20260901044916 | 15 | 125 | 0.0 | 8.0 | 0.00 | 2.01 | 0.00 | 92 | 1019.9 |
| 20260901044417 | 15 | 137 | 3.2 | 8.0 | 0.00 | 2.01 | 0.00 | 92 | 1019.8 |
| 20260901044214 | 15 | 166 | 1.6 | 8.0 | 0.00 | 2.01 | 0.00 | 92 | 1019.8 |
| 20260901043505 | 15 | 167 | 0.0 | 6.4 | 0.00 | 2.01 | 0.00 | 92 | 1019.8 |
| 20260901042511 | 15 | 143 | 3.2 | 8.0 | 0.00 | 2.01 | 0.00 | 92 | 1019.7 |
| 20260901041949 | 15 | 121 | 1.6 | 9.7 | 0.00 | 2.01 | 0.00 | 92 | 1019.5 |
| 20260901041223 | 15 | 151 | 3.2 | 9.7 | 0.00 | 2.01 | 0.00 | 92 | 1019.5 |
| 20260901040712 | 15 | 142 | 1.6 | 6.4 | 0.00 | 2.01 | 0.00 | 92 | 1019.6 |
| 20260901035937 | 15 | 136 | 1.6 | 9.7 | 0.00 | 2.01 | 0.00 | 92 | 1019.5 |
| 20260901035611 | 15 | 131 | 1.6 | 9.7 | 0.00 | 2.01 | 0.00 | 92 | 1019.5 |
| 20260901034153 | 15 | 169 | 0.0 | 6.4 | 0.00 | 2.01 | 0.00 | 92 | 1019.4 |
| 20260901033422 | 15 | 183 | 1.6 | 8.0 | 0.00 | 2.01 | 0.00 | 92 | 1019.4 |
| 20260901033027 | 15 | 150 | 1.6 | 8.0 | 0.00 | 2.01 | 0.00 | 92 | 1019.5 |
| 20260901032408 | 15 | 98 | 3.2 | 8.0 | 0.00 | 2.01 | 0.00 | 92 | 1019.4 |
| 20260901031944 | 15 | 127 | 1.6 | 6.4 | 0.00 | 2.01 | 0.00 | 92 | 1019.4 |
| 20260901031656 | 15 | 120 | 0.0 | 9.7 | 0.00 | 2.01 | 0.00 | 92 | 1019.4 |
| 20260901030912 | 15 | 87 | 1.6 | 9.7 | 0.00 | 2.01 | 0.00 | 92 | 1019.3 |
| 20260901030641 | 15 | 179 | 1.6 | 11.3 | 0.00 | 2.01 | 0.00 | 93 | 1019.3 |
| 20260901025145 | 15 | 161 | 1.6 | 8.0 | 0.00 | 2.01 | 0.00 | 93 | 1019.3 |
| 20260901023905 | 15 | 164 | 1.6 | 8.0 | 0.00 | 2.01 | 0.00 | 93 | 1019.3 |
| 20260901023455 | 14 | 122 | 0.0 | 4.8 | 0.00 | 2.01 | 0.00 | 93 | 1019.3 |
| 20260901022457 | 14 | 140 | 0.0 | 1.6 | 0.00 | 2.01 | 0.00 | 92 | 1019.4 |
| 20260901021424 | 14 | 148 | 0.0 | 0.0 | 0.00 | 2.01 | 0.00 | 92 | 1019.3 |
| 20260901020839 | 14 | 94 | 0.0 | 0.0 | 0.00 | 2.01 | 0.00 | 92 | 1019.3 |
| 20260901020051 | 15 | 160 | 0.0 | 0.0 | 0.00 | 2.01 | 0.00 | 92 | 1019.4 |
| 20260901015048 | 15 | 160 | 0.0 | 1.6 | 0.00 | 2.01 | 0.00 | 92 | 1019.3 |